Location: Newark
(13.6797°N, 8.5297°E)
Time: 01:52:34
(UTC+00:00)

Altair - Pass Details

Date: 04 February 2020
Orbit: 1502 x 1682 km, 47.2° (Epoch: 19 February)

Event Time Altitude Azimuth Distance (km) Brightness Sun altitude
Rises 05:35:27 0° 271° (W) 4,778 - -4.8°
Exits shadow 05:37:21 - 278° (W) 4,350 9.2 -4.4°
Reaches altitude 10° 05:40:04 10° 290° (WNW) 3,828 8.9 -3.7°
Maximum altitude 05:45:59 17° 328° (NNW) 3,318 8.9 -2.4°
Drops below altitude 10° 05:52:02 10° 6° (N) 3,905 9.5 -1.0°
Sets 05:56:53 0° 25° (NNE) 4,914 10.3 0.2°
